Hourly Weather Cerignola

Today, 25 June, Friday

Time Temperature Precipitation Wind Pressure Humidity
00:00 +30°C° 0 mm 2 mps 752 mmHg 35%
01:00 +29°C° 0 mm 3 mps 752 mmHg 40%
02:00 +29°C° 0.1 mm 3 mps 751 mmHg 39%
03:00 +29°C° 0.1 mm 3 mps 751 mmHg 38%
04:00 +29°C° 0.1 mm 3 mps 750 mmHg 38%
05:00 +29°C° 0.1 mm 3 mps 751 mmHg 38%
06:00 +30°C° 0.1 mm 3 mps 751 mmHg 38%
07:00 +31°C° 0 mm 2 mps 751 mmHg 39%
08:00 +34°C° 0 mm 3 mps 751 mmHg 33%
09:00 +37°C° 0 mm 3 mps 751 mmHg 27%
10:00 +40°C° 0 mm 3 mps 751 mmHg 20%
11:00 +42°C° 0 mm 4 mps 751 mmHg 19%
12:00 +42°C° 0 mm 5 mps 750 mmHg 18%
13:00 +44°C° 0 mm 6 mps 750 mmHg 17%
14:00 +42°C° 0 mm 6 mps 750 mmHg 18%
15:00 +42°C° 0 mm 6 mps 749 mmHg 19%
16:00 +41°C° 0 mm 5 mps 749 mmHg 20%
17:00 +39°C° 0 mm 5 mps 749 mmHg 22%
18:00 +37°C° 0 mm 4 mps 749 mmHg 25%
19:00 +36°C° 0 mm 3 mps 749 mmHg 27%
20:00 +34°C° 0 mm 3 mps 750 mmHg 31%
21:00 +31°C° 0 mm 3 mps 750 mmHg 35%
22:00 +30°C° 0 mm 3 mps 750 mmHg 39%
23:00 +29°C° 0 mm 3 mps 750 mmHg 42%

Tomorrow, 26 June, Saturday

Time Temperature Precipitation Wind Pressure Humidity
00:00 +28°C° 0 mm 3 mps 750 mmHg 45%
01:00 +27°C° 0 mm 2 mps 750 mmHg 48%
02:00 +26°C° 0 mm 2 mps 750 mmHg 51%
03:00 +26°C° 0 mm 2 mps 750 mmHg 54%
04:00 +25°C° 0 mm 2 mps 750 mmHg 57%
05:00 +26°C° 0 mm 2 mps 750 mmHg 52%
06:00 +28°C° 0 mm 2 mps 750 mmHg 47%
07:00 +29°C° 0 mm 3 mps 751 mmHg 41%
08:00 +31°C° 0 mm 3 mps 751 mmHg 36%
09:00 +34°C° 0 mm 3 mps 750 mmHg 31%
10:00 +36°C° 0 mm 3 mps 750 mmHg 26%
11:00 +37°C° 0 mm 4 mps 750 mmHg 25%
12:00 +39°C° 0 mm 5 mps 749 mmHg 24%
13:00 +39°C° 0 mm 6 mps 749 mmHg 24%
14:00 +38°C° 0 mm 6 mps 749 mmHg 26%
15:00 +36°C° 0 mm 5 mps 749 mmHg 28%
16:00 +35°C° 0 mm 5 mps 749 mmHg 30%
17:00 +34°C° 0 mm 4 mps 749 mmHg 32%
18:00 +33°C° 0 mm 3 mps 749 mmHg 35%
19:00 +30°C° 0 mm 3 mps 750 mmHg 37%
20:00 +29°C° 0 mm 2 mps 750 mmHg 40%
21:00 +28°C° 0 mm 1 mps 750 mmHg 43%
22:00 +26°C° 0 mm 1 mps 751 mmHg 47%
23:00 +26°C° 0 mm 1 mps 751 mmHg 48%

Day after tomorrow, 27 June, Sunday

Time Temperature Precipitation Wind Pressure Humidity
00:00 +25°C° 0 mm 1 mps 750 mmHg 50%
01:00 +25°C° 0 mm 1 mps 750 mmHg 51%
02:00 +24°C° 0 mm 1 mps 750 mmHg 52%
03:00 +24°C° 0 mm 1 mps 750 mmHg 53%
04:00 +23°C° 0 mm 2 mps 750 mmHg 54%
05:00 +25°C° 0 mm 1 mps 750 mmHg 49%
06:00 +27°C° 0 mm 1 mps 750 mmHg 44%
07:00 +29°C° 0 mm 1 mps 750 mmHg 38%
08:00 +31°C° 0 mm 1 mps 750 mmHg 33%
09:00 +34°C° 0 mm 2 mps 750 mmHg 29%
10:00 +36°C° 0 mm 2 mps 750 mmHg 24%
11:00 +37°C° 0 mm 3 mps 750 mmHg 22%
12:00 +37°C° 0 mm 4 mps 750 mmHg 20%
13:00 +39°C° 0 mm 5 mps 749 mmHg 19%
14:00 +39°C° 0 mm 6 mps 749 mmHg 20%
15:00 +38°C° 0 mm 6 mps 749 mmHg 20%
16:00 +36°C° 0 mm 6 mps 749 mmHg 21%
17:00 +35°C° 0 mm 5 mps 750 mmHg 24%
18:00 +33°C° 0 mm 4 mps 750 mmHg 26%
19:00 +31°C° 0 mm 3 mps 750 mmHg 28%
20:00 +30°C° 0 mm 2 mps 750 mmHg 32%
21:00 +28°C° 0 mm 2 mps 750 mmHg 36%
22:00 +27°C° 0 mm 1 mps 751 mmHg 40%
23:00 +26°C° 0 mm 1 mps 751 mmHg 41%

28 June, Monday

Time Temperature Precipitation Wind Pressure Humidity
00:00 +26°C° 0 mm 1 mps 750 mmHg 41%
01:00 +25°C° 0 mm 1 mps 750 mmHg 41%
02:00 +25°C° 0 mm 1 mps 750 mmHg 41%
03:00 +25°C° 0 mm 1 mps 750 mmHg 40%
04:00 +25°C° 0 mm 1 mps 750 mmHg 40%
05:00 +27°C° 0 mm 1 mps 750 mmHg 36%
06:00 +29°C° 0 mm 1 mps 751 mmHg 31%
07:00 +31°C° 0 mm 1 mps 751 mmHg 27%
08:00 +34°C° 0 mm 2 mps 751 mmHg 25%
09:00 +36°C° 0 mm 2 mps 751 mmHg 22%
10:00 +38°C° 0 mm 3 mps 750 mmHg 19%
11:00 +40°C° 0 mm 4 mps 750 mmHg 19%
12:00 +40°C° 0 mm 5 mps 750 mmHg 19%
13:00 +41°C° 0 mm 5 mps 750 mmHg 18%
14:00 +41°C° 0 mm 6 mps 749 mmHg 19%
15:00 +41°C° 0 mm 6 mps 749 mmHg 19%
16:00 +40°C° 0 mm 6 mps 749 mmHg 19%
17:00 +37°C° 0 mm 5 mps 749 mmHg 22%
18:00 +36°C° 0 mm 4 mps 749 mmHg 25%
19:00 +34°C° 0 mm 3 mps 749 mmHg 29%
20:00 +31°C° 0 mm 3 mps 749 mmHg 32%
21:00 +30°C° 0 mm 2 mps 749 mmHg 34%
22:00 +28°C° 0 mm 2 mps 749 mmHg 37%
23:00 +28°C° 0 mm 2 mps 749 mmHg 36%

29 June, Tuesday

Time Temperature Precipitation Wind Pressure Humidity
00:00 +28°C° 0 mm 2 mps 749 mmHg 34%
01:00 +27°C° 0 mm 2 mps 749 mmHg 33%
02:00 +27°C° 0 mm 2 mps 749 mmHg 33%
03:00 +27°C° 0 mm 2 mps 749 mmHg 34%
04:00 +26°C° 0 mm 3 mps 748 mmHg 34%
05:00 +28°C° 0 mm 2 mps 749 mmHg 31%
06:00 +31°C° 0 mm 2 mps 749 mmHg 27%
07:00 +34°C° 0 mm 2 mps 749 mmHg 24%
08:00 +36°C° 0 mm 3 mps 749 mmHg 21%
09:00 +39°C° 0 mm 3 mps 749 mmHg 17%
10:00 +43°C° 0 mm 3 mps 749 mmHg 14%
11:00 +43°C° 0 mm 4 mps 748 mmHg 14%
12:00 +45°C° 0 mm 5 mps 748 mmHg 14%
13:00 +46°C° 0 mm 5 mps 747 mmHg 13%
14:00 +45°C° 0 mm 5 mps 747 mmHg 14%
15:00 +45°C° 0 mm 5 mps 747 mmHg 14%
16:00 +45°C° 0 mm 5 mps 747 mmHg 14%
17:00 +42°C° 0 mm 4 mps 747 mmHg 18%
18:00 +40°C° 0 mm 4 mps 747 mmHg 21%
19:00 +37°C° 0 mm 3 mps 747 mmHg 24%
20:00 +34°C° 0.1 mm 3 mps 747 mmHg 30%
21:00 +31°C° 0.1 mm 3 mps 747 mmHg 36%
22:00 +29°C° 0.1 mm 3 mps 747 mmHg 42%
23:00 +28°C° 0 mm 4 mps 747 mmHg 43%

30 June, Wednesday

Time Temperature Precipitation Wind Pressure Humidity
00:00 +28°C° 0 mm 4 mps 747 mmHg 45%
01:00 +27°C° 0 mm 4 mps 747 mmHg 47%
02:00 +27°C° 0 mm 4 mps 747 mmHg 48%
03:00 +26°C° 0 mm 3 mps 747 mmHg 50%
04:00 +25°C° 0 mm 3 mps 747 mmHg 52%
05:00 +27°C° 0 mm 3 mps 747 mmHg 47%
06:00 +29°C° 0 mm 3 mps 748 mmHg 42%
07:00 +30°C° 0 mm 3 mps 748 mmHg 37%
08:00 +34°C° 0 mm 3 mps 748 mmHg 31%
09:00 +36°C° 0 mm 3 mps 748 mmHg 25%
10:00 +38°C° 0 mm 3 mps 748 mmHg 19%
11:00 +40°C° 0 mm 4 mps 747 mmHg 17%
12:00 +41°C° 0 mm 5 mps 747 mmHg 16%
13:00 +42°C° 0 mm 6 mps 747 mmHg 15%
14:00 +42°C° 0 mm 6 mps 747 mmHg 15%
15:00 +41°C° 0 mm 7 mps 747 mmHg 16%
16:00 +40°C° 0 mm 7 mps 747 mmHg 16%
17:00 +39°C° 0 mm 6 mps 747 mmHg 17%
18:00 +36°C° 0 mm 6 mps 747 mmHg 19%
19:00 +34°C° 0 mm 5 mps 747 mmHg 20%
20:00 +32°C° 0 mm 6 mps 747 mmHg 24%
21:00 +29°C° 0 mm 6 mps 748 mmHg 28%
22:00 +28°C° 0 mm 6 mps 748 mmHg 32%
23:00 +27°C° 0 mm 6 mps 748 mmHg 34%
Show more

We Need Your Consent

Meteoprog and our Service Providers may store and access personal data such as cookies, device identifiers or other similar technologies on your device and process such data to personalise content and ads, as well as provide social media features and to analyse the traffic.

  • Store and/or access information on your device

    Cookies, device identifiers or other information can be stored or accessed on your device for the purposes indicated above.

  • Personalised ads and content, ad and content measurement, audience insights, and products development

    Ads and content can be personalised based on a profile. More data can be added to better personalise ads and content. Ad and content performance can be measured. Insights about the audience who saw the ads and content can be derived. Such data can be used to develop or improve user’s experience, systems and software.

By clicking ‘I Agree’ you will allow the use of indicated cookies, device identifiers, web beacons or other similar technologies. Your settings can be changed in the browser on your device.

For certain purposes, legitimate interests may be relied on, rather than consent. You can read more about this in our Privacy and Cookie Policy.